Regional Weather Roundup
Issued by NWS Burlington, VT

Home | Current Version | Previous Version | Text Only | Print | Product List | Glossary On
Versions: 1 2 3 4 5 6 7 8 9 10 11 12 13 14 15 16 17 18 19 20 21 22 23 24 25 26 27 28 29 30 31 32 33 34 35 36 37 38 39 40 41 42 43 44 45 46 47 48 49 50
000
ASUS41 KBTV 110910
RWRBTV
VERMONT REGIONAL WEATHER ROUNDUP
NATIONAL WEATHER SERVICE BURLINGTON VT
500 AM EDT FRI JUL 11 2014

NOTE: "FAIR" INDICATES FEW OR NO CLOUDS BELOW 12,000 FEET WITH NO
SIGNIFICANT WEATHER AND/OR OBSTRUCTIONS TO VISIBILITY.

* THESE REPORTS ARE NOT UNDER NWS QUALITY CONTROL AND/OR DO NOT
  REPORT WEATHER SUCH AS PRECIPITATION AND FOG.

VTZ001>019-111000-
_____VERMONT_____


CITY           SKY/WX    TMP DP  RH WIND       PRES   REMARKS
BURLINGTON     SUNNY     54  50  86 E3        30.23R
MONTPELIER     SUNNY     49  47  93 CALM      30.27R
MORRISVILLE    CLOUDY    47  45  93 CALM      30.26R FOG
ST. JOHNSBURY*   N/A     50  48  93 MISG      30.23R
LYNDONVILLE*   FAIR      47  45  90 CALM      30.26R
MIDDLEBURY*    FAIR      52  52 100 CALM      30.22R
RUTLAND*       SUNNY     54  50  87 SE5       30.23S
SPRINGFIELD    MOSUNNY   52  51  97 CALM      30.24R
HIGHGATE*      FAIR      50  49  95 SE3       30.22R
NEWPORT*       FAIR     N/A N/A N/A S3        30.24R
BENNINGTON     MOSUNNY   52  50  93 CALM      30.21S
SUTTON*          N/A     48 N/A N/A MISG        N/A

_____LAKE CHAMPLAIN_____


CITY           SKY/WX    TMP DP  RH WIND       PRES   REMARKS
COLCHESTER RF*   N/A     61  55  82 S3          N/A
DIAMOND ISL*     N/A     59  55  88 E2          N/A

$$

NYZ007-026>031-035-052-083-111000-
_____NORTHERN NEW YORK_____


CITY           SKY/WX    TMP DP  RH WIND       PRES   REMARKS
PLATTSBURGH    SUNNY     51  49  92 SW6       30.22R
SARANAC LAKE   FOG       41  40  96 CALM      30.24S VSB 1/4
MASSENA        FOG       50  50 100 CALM      30.23R VSB 3/4
OGDENSBURG*    SUNNY     52  50  93 CALM      30.22S
POTSDAM*       SUNNY     48  48 100 CALM      30.23S
WATERTOWN      SUNNY     50  46  86 E5        30.22S
FT DRUM        SUNNY     52  52 100 S2        30.23R
ALBANY         MOSUNNY   58  53  84 CALM      30.21R
GLENS FALLS    SUNNY     54  53  97 CALM      30.21R

$$
NHZ002-005-011-111000-
_____NEW HAMPSHIRE_____


CITY           SKY/WX    TMP DP  RH WIND       PRES   REMARKS
LEBANON        MOSUNNY   52  50  93 CALM      30.23R
KEENE          PTSUNNY   55  46  71 CALM      30.22S
MT WASHINGTON  MOSUNNY   41  39  93 W26         N/A
PLYMOUTH       FAIR      49  48  97 CALM      30.22R FOG
WHITEFIELD     MOSUNNY   45  42  89 CALM      30.24R FOG

$$

_____REGIONAL QUEBEC LOCATIONS_____


CITY           SKY/WX    TMP DP  RH WIND       PRES   REMARKS
MONTREAL       MOSUNNY   57  52  82 W6        30.21R
QUEBEC CITY    SUNNY     52  48  87 VRB2      30.18S
SHERBROOKE     SUNNY     45  45 100 CALM      30.23R FOG

_____REGIONAL ONTARIO LOCATIONS_____


CITY           SKY/WX    TMP DP  RH WIND       PRES   REMARKS
OTTAWA         SUNNY     50  48  93 S3        30.21S

______KEY______
VSB  - VISIBILITY IN MILES
WCI  - WIND CHILL INDEX
HX   - HEAT INDEX
$$



USA.gov is the U.S. government's official web portal to all federal, state and local government web resources and services.